www.pogodaiklimat.ru

Погода и климат >> Архив погоды >> Россия >> Волгоградская область >> Волгоград


АРХИВ ПОГОДЫ в Волгограде

Время (UTC), дата Ветер
(напр.,м/с)
 
Видим.   Явления Облачность Т
(С)
Тd
(С)
f
(%)
Тe
(С)
Тes
(С)
Комфортность P
(гПа)
Po
(гПа)
Тmin
(С)
Tmax
(С)
R
(мм)
R24
(мм)
S
(см)
12 18.05 В 2
{11}
10 км 3/0
[Ci fib]
+21.5 +3.8 31 +22 +32 комфорт 1014.6 996.7
15 18.05 СВ 3 10 км ясно +21.0 +4.4 34 +22 +23 комфорт 1013.7 995.8 +22.4
18 18.05 В 2 10 км ясно +14.7 +6.5 58 +15 +15 по сезону 1013.7 995.4
21 18.05 штиль 0 10 км ясно +11.9 +5.9 67 +12 +12 по сезону 1013.8 995.3
00 19.05 С 3 10 км ясно +11.2 +5.4 67 +10 +10 по сезону 1013.1 994.6
03 19.05 штиль 0 10 км ясно +14.0 +7.6 65 +14 +16 по сезону 1013.1 994.8 +9.2
06 19.05 СВ 4 10 км ясно +20.9 +5.8 37 +22 +29 комфорт 1013.2 995.3
09 19.05 С 4 10 км ясно +23.0 +3.8 29 +23 +35 комфорт 1012.5 994.7
12 19.05 С 4
{10}
10 км 4/0
[Ac trans]
+24.8 +5.4 29 +24 +30 комфорт 1011.7 994.1
15 19.05 С 5 10 км 3/0
[Ci fib]
+23.6 +4.8 30 +23 +24 комфорт 1012.0 994.3 +25.3
18 19.05 С 3 10 км ясно +15.1 +4.6 49 +15 +15 по сезону 1014.2 995.9
21 19.05 штиль 0 10 км ясно +12.8 +5.2 60 +13 +13 по сезону 1014.6 996.2
00 20.05 В 6
{10}
10 км ясно +12.6 +1.8 48 +10 +10 по сезону 1016.0 997.5
03 20.05 В 5 10 км ясно +12.0 +3.5 56 +10 +11 прохладно 1018.5 999.9 +10.4
06 20.05 В 4 10 км ясно +16.2 +2.0 38 +16 +23 по сезону 1019.1 1000.8
09 20.05 СВ 4 10 км 4/0
[Ci fib]
+17.9 +0.8 32 +18 +29 по сезону 1019.7 1001.5
12 20.05 С 4 10 км 4/0
[Ci fib]
+20.3 +1.0 28 +21 +27 комфорт 1018.9 1000.8
15 20.05 С 2 10 км 8/0
[Ci fib]
+20.3 +2.5 31 +21 +23 комфорт 1018.2 1000.2 +21.1
18 20.05 ЮВ 2 10 км 5/0
[Ci fib]
+13.8 +4.4 53 +13 +13 по сезону 1019.6 1001.1
21 20.05 В 3 10 км 5/0
[Ci fib]
+12.2 +4.2 58 +11 +11 по сезону 1020.3 1001.7
00 21.05 В 5 10 км ясно +9.8 +3.3 64 +7 +7 прохладно 1021.2 1002.4
03 21.05 ЮВ 5 10 км 4/0
[]
+12.5 +3.9 56 +10 +11 прохладно 1022.4 1003.8 +8.0
06 21.05 Ю 5 10 км 3/0
[Ci fib]
+17.1 +2.5 38 +16 +22 по сезону 1022.7 1004.4
09 21.05 ЮВ 3 10 км 6/0
[Ci fib]
+20.4 +3.4 33 +21 +34 комфорт 1022.3 1004.2
12 21.05 Ю 2 10 км 3/0
[Ac trans]
+22.8 +3.5 28 +23 +32 комфорт 1020.8 1002.9
15 21.05 ЮВ 4 10 км 3/0
[Ci fib]
+21.4 +5.1 34 +22 +23 комфорт 1019.8 1001.8 +23.3
18 21.05 В 4 10 км 5/0
[Ci fib]
+13.6 +4.9 56 +12 +12 прохладно 1021.2 1002.7
21 21.05 ЮВ 5 10 км 4/0
[Ci fib]
+13.4 +3.6 51 +12 +12 по сезону 1020.9 1002.4
00 22.05 ЮВ 5 10 км 3/0
[Ci fib]
+11.5 +2.3 53 +9 +9 по сезону 1020.1 1001.5
03 22.05 Ю 3 10 км 8/0
[Ci fib]
+13.5 +5.5 58 +13 +14 по сезону 1020.3 1001.8 +10.6
06 22.05 Ю 7-10
{10}
10 км 8/0
[Ac trans]
+20.3 +2.5 31 +20 +22 тепло 1019.2 1001.1
09 22.05 ЮВ 7
{10}
10 км 9/0
[Ac trans]
+20.4 +3.6 33 +21 +23 комфорт 1017.8 999.8
12 22.05 ЮВ 5
{10}
10 км 9/0
[Ci fib]
+22.5 +3.6 29 +22 +27 комфорт 1016.1 998.2
15 22.05 ЮВ 5
{10}
10 км 9/0
[Ac trans]
+20.7 +3.4 32 +21 +22 комфорт 1014.6 996.7 +23.1
18 22.05 ЮВ 5
{10}
10 км 8/0
[Ac trans]
+17.6 +4.8 43 +17 +17 тепло 1013.8 995.7
21 22.05 ЮВ 7 10 км 9/0
[Ac trans]
+16.8 +4.3 43 +16 +16 тепло 1012.6 994.5
00 23.05 Ю 5
{10}
10 км 9/4 1500 м
[Cb calv Ac trans]
+14.8 +9.6 71 +13 +13 по сезону 1012.2 994.0
03 23.05 ЮВ 4 10 км {ливн. осадки} 8/3 1500 м
[Sc Ac trans]
+14.0 +12.0 88 +12 +13 прохладно 1011.4 993.1 +12.5
06 23.05 Ю 6 10 км {ливн. осадки} 8/8 870 м
[Cb calv]
+20.1 +13.4 65 +22 +23 комфорт 1009.8 992.0
09 23.05 Ю 5 10 км {гроза} 8/4 600 м
[Cu med, cong Ac trans]
+21.2 +12.2 56 +23 +27 комфорт 1008.8 991.0
12 23.05 Ю 4
{11}
10 км {гроза, ливн. осадки} 9/5 1000 м
[Cb calv Ac trans]
+19.5 +11.1 58 +21 +23 комфорт 1007.7 989.8
15 23.05 З 5
{15}
10 км {гроза, ливн. осадки} 8/4 1000 м
[Cb calv Ac trans]
+19.3 +11.8 62 +20 +21 тепло 1007.6 989.7 +22.1
18 23.05 ЮЗ 3
{15}
10 км {гроза, ливн. осадки} 5/5 750 м
[Sc]
+14.1 +11.7 85 +13 +13 прохладно 1007.8 989.6
21 23.05 ЮЗ 4 10 км 4/0
[Ac trans]
+13.2 +12.3 94 +11 +11 прохладно 1007.3 989.1
00 24.05 ЮЗ 3 10 км 5/5 1500 м
[Sc]
+12.2 +11.5 95 +10 +10 по сезону 1006.7 988.4
03 24.05 ЮЗ 5 10 км в посл. час ливневой дождь 6/0
[Ac trans]
+14.7 +13.3 91 +13 +14 по сезону 1006.8 988.7 +12.1
06 24.05 З 6 10 км {ливн. осадки} 3/0
[Ac trans]
+20.9 +13.7 63 +23 +27 комфорт 1006.9 989.2
09 24.05 З 6-11
{10}
10 км 4/4 1000 м
[Cu med, cong]
+25.0 +12.0 44 +27 +31 жарко 1007.0 989.5
12 24.05 З 5
{11}
10 км 6/6 1500 м
[Cu med, cong]
+26.7 +11.1 38 +28 +30 жарко 1007.1 989.7
15 24.05 СВ 5
{11}
10 км гроза, ливневой дождь 8/8 1500 м
[Cb calv]
+22.4 +15.1 63 +26 +26 жарко 1008.2 990.5 +27.4
18 24.05 СВ 1
{11}
10 км {гроза, ливн. осадки} 8/0
[Ac trans]
+19.2 +15.6 80 +22 +22 комфорт 1009.9 992.0
21 24.05 В 7 10 км 4/0
[Ac trans]
+16.8 +13.7 82 +16 +16 тепло 1011.6 993.5
00 25.05 В 8 10 км 8/0
[Ac trans]
+14.3 +11.3 82 +12 +12 по сезону 1012.4 994.1
03 25.05 В 9-12
{13}
10 км 8/0
[Ac trans]
+12.5 +8.1 75 +9 +9 холодно 1013.5 995.1 +12.4
06 25.05 В 9-12
{13}
10 км 5/0
[Ac trans]
+16.4 +9.9 65 +15 +16 прохладно 1013.2 995.0 +12.3

 

Местоположение метеостанции Волгоград (Волгоградская область, Россия): широта 48.78 долгота 44.37 высота над уровнем моря 134 м.

В архиве по умолчанию представлена погода в Волгограде за последнюю неделю. Архивные данные за месяц целиком и за предыдущие месяцы, начиная с января 2011 года, Вы можете получить, выбрав интересующий диапазон дат из раскрывающегося списка и нажав кнопку "Ввод!".


*Определитесь, кто Вы:
робот инопланетянин человек

Внимание! Время в таблицах - всемирное. Для получения местного времени необходимо прибавить поправку, которая равна 3 ч.

Смотрите также архив погоды в соседних городах и на ближайших метеорологических станциях:

Погода в Волгограде город (Волгоградская область, Россия) (14 км)
Погода в Иловле (Волгоградская область, Россия) (64 км)
Погода в Калаче-на-Дону (Волгоградская область, Россия) (66 км)
Погода в Малых Дербетах (Калмыкия, Россия) (98 км)
Погода в Нижнем Чире (Волгоградская область, Россия) (105 км)
Погода в Ольховке (Волгоградская область, Россия) (122 км)
Погода в Фролове (Волгоградская область, Россия) (124 км)
Погода в Серафимовиче (Волгоградская область, Россия) (148 км)
Погода в Черный Яр (Астраханская область, Россия) (151 км)
Погода в Котельниково (Волгоградская область, Россия) (157 км)

Пояснения к столбцам:

Ветер - указаны скорость ветра в м/с - средняя за 10 мин, порывы в срок и между сроками (в фигурных скобках) и направление, откуда дует ветер: С - северный, СВ - северо-восточный, В - восточный, ЮВ - юго-восточный, Ю - южный, ЮЗ - юго-западный, З - западный, СЗ - северо-западный.
Видимость - горизонтальная дальность видимости в метрах или километрах. При видимости от 1 до 10 км при отсутствии осадков обычно наблюдается дымка, при ухудшении видимости до 1 км и менее - туман. В сухую погоду видимость может ухудшаться дымом, пылью или мглою.
Явления - указаны атмосферные явления, наблюдавшиеся в срок или в последний час перед сроком; фигурными скобками обозначены явления, наблюдавшиеся между сроками (за 1-3 часа до срока); квадратными скобками обозначены град или гололедные отложения с указанием их диаметра в мм.
Облачность - указаны через наклонную черту общая и нижняя облачность в баллах и высота нижней границы облаков в метрах; квадратными скобками обозначены формы облаков: Ci - перистые, Cs - перисто-слоистые, Cc - перисто-кучевые, Ac - высококучевые, As - высокослоистые, Sc - слоисто-кучевые, Ns - слоисто-дождевые, Cu - кучевые, Cb - кучево-дождевые. Подробнее классификацию облаков см. в Атласе облаков (PDF).
T - Температура воздуха - температура, измеренная на высоте 2 м над землей.
Td - Температура точки росы - температура, при понижении до которой содержащийся в воздухе водяной пар достигнет насыщения.
f - Относительная влажность воздуха - влажноcть воздуха, измеренная на высоте 2 м над землей.
Te - Эффективная температура - температура, которую ощущает одетый по сезону человек в тени. Характеристика душности погоды. При расчете учитывается влияние влажности воздуха и скорости ветра на теплоощущения человека.
Tes - Эффективная температура на солнце - температура, которую ощущает человек, с поправкой на солнечный нагрев. Характеристика знойности погоды. Зависит от высоты солнца над горизонтом, облачности и скорости ветра. Ночью, в пасмурную погоду, а также при ветре 12 м/с и более поправка равна нулю.
P - Атмосферное давление - приведенное к уровню моря атмосферное давление.
Po - Атмосферное давление - измеренное на уровне метеостанции атмосферное давление.
Tmin - Минимальная температура - минимум температуры воздуха на высоте 2 м над землей.
Tmax - Максимальная температура - максимум температуры воздуха на высоте 2 м над землей.
R - Количество осадков - Количество выпавших осадков за период времени, мм. При наведении курсора мыши на число - период времени, за который выпало указанное количество осадков.
R24 - Количество осадков - Количество выпавших осадков за 24 часа, мм.
S - Снежный покров - Высота снежного покрова, см. При наведении курсора мыши на число - состояние снежного покрова и степень покрытия местности в баллах.